Regional Weather Roundup
Issued by NWS

Home | Current Version | Previous Version | Graphics & Text | Print | Product List | Glossary Off
Versions: 1 2 3 4 5 6 7 8 9 10 11 12 13 14 15 16 17 18 19 20 21 22 23 24 25 26 27 28 29 30 31 32 33 34 35 36 37 38 39 40 41 42 43 44 45 46 47 48 49 50

000
ASUS43 KMKX 300459
RWRWI

WISCONSIN REGIONAL WEATHER ROUNDUP
NATIONAL WEATHER SERVICE MILWAUKEE/SULLIVAN WI
1200 AM CDT MON MAR 30 2015

NOTE: "FAIR" INDICATES FEW OR NO CLOUDS BELOW 12,000 FEET WITH NO
SIGNIFICANT WEATHER AND/OR OBSTRUCTIONS TO VISIBILITY.

WIZ001-002-006>008-014>016-023>028-300600-
NORTHWEST WISCONSIN

CITY           SKY/WX    TMP DP  RH WIND       PRES   REMARKS
SUPERIOR ARPT  CLEAR     37  25  63 SW6       29.85S WCI  32
ASHLAND        CLEAR     34  25  69 SW7       29.83S WCI  28
HAYWARD        CLEAR     29  25  85 S3        29.86S
SIREN          CLEAR     35  25  65 W7        29.90S WCI  30
CUMBERLAND     CLEAR     34  27  75 W8        29.89S WCI  27
RICE LAKE      CLEAR     38  26  62 W6        29.91R WCI  33
CHETEK         CLEAR     39  26  60 W7        29.90R WCI  34
LADYSMITH      MOCLDY    36  28  72 W5        29.89R WCI  32
EAU CLAIRE     CLEAR     36  25  64 SW7       29.91R WCI  30
MENOMONIE      CLEAR     40  27  59 W8        29.92S WCI  34
NEW RICHMOND   CLEAR     36  26  68 W6        29.94R WCI  31
OSCEOLA        CLEAR     38  28  65 W8        29.95S WCI  32
$$

WIZ003>005-009-010-017-018-300600-
NORTH CENTRAL WISCONSIN

CITY           SKY/WX    TMP DP  RH WIND       PRES   REMARKS
MANITOWISH WTR CLEAR     32  29  87 W7        29.79R WCI  26
ARBOR VITAE    CLEAR     36  31  83 NW5       29.79R WCI  32
WOODRUFF       CLEAR     36  31  83 NW5       29.79R WCI  32
RHINELANDER    CLEAR     32  27  81 W9        29.80R WCI  24
EAGLE RIVER    PTCLDY    34  27  76 W10       29.76S WCI  26
LAND O LAKES   PTCLDY    35  29  80 W7        29.75F WCI  29
PHILLIPS       CLEAR     33  28  81 W3        29.82S
TOMAHAWK       FAIR      33  28  80 CALM      29.82S
MEDFORD        CLOUDY    35  28  75 W9        29.85R WCI  28
MERRILL        PTCLDY    37  30  77 W7        29.83S WCI  31
$$

WIZ029-030-035-036-043>047-300600-
CENTRAL WISCONSIN

CITY           SKY/WX    TMP DP  RH WIND       PRES   REMARKS
WAUSAU         CLOUDY    36  30  79 W9        29.83R WCI  29
MOSINEE        CLOUDY    36  32  87 NW9       29.85S WCI  29
MARSHFIELD     PTCLDY    35  27  72 NW8       29.87R WCI  29
STEVENS POINT  CLOUDY    36  30  78 W5        29.86S WCI  32
WAUPACA        CLEAR     38  31  74 W8        29.86R WCI  32
WAUTOMA        NOT AVBL
WISC RAPIDS    CLOUDY    33  28  81 W5        29.90R WCI  29
CAMP DOUGLAS   CLEAR     31  30  98 W8        29.90R WCI  23
$$

WIZ011>013-019>022-031-037>040-048>050-300600-
NORTHEAST WISCONSIN

CITY           SKY/WX    TMP DP  RH WIND       PRES   REMARKS
ANTIGO         CLEAR     34  29  82 NW14      29.80S WCI  25
SHAWANO        PTCLDY    40  31  70 W7        29.82R WCI  35
OCONTO         PTCLDY    38  31  74 NW7G16    29.78R WCI  33
STURGEON BAY   MOCLDY    37  28  70 NW13      29.78R WCI  29
GREEN BAY      CLEAR     38  30  73 W14       29.81R WCI  30
MANITOWOC      NOT AVBL
APPLETON       CLEAR     36  28  75 W10       29.84R WCI  28
CLINTONVILLE   CLEAR     37  30  75 NW10      29.82R WCI  30
OSHKOSH        CLEAR     38  30  73 W7        29.86R WCI  33
$$

WIZ032>034-041-042-053>061-300600-
SOUTHWEST WISCONSIN

CITY           SKY/WX    TMP DP  RH WIND       PRES   REMARKS
LA CROSSE      CLEAR     43  28  55 W10       29.94R
SPARTA         CLEAR     41  26  55 SW3       29.93R
VIROQUA        CLEAR     40  29  64 W10       29.93R WCI  33
BOSCOBEL       CLEAR     44  28  53 CALM      29.96R
PRAIRIE DU CHI CLEAR     42  28  57 NW6       29.98R
PLATTEVILLE    CLEAR     39  30  69 W6        29.96R WCI  35
$$

WIZ056-057-062-063-064-067-068-300600-
SOUTH CENTRAL WISCONSIN

CITY           SKY/WX    TMP DP  RH WIND       PRES   REMARKS
REEDSBURG      CLEAR     31  31  99 CALM      29.91R
BARABOO/DELLS  CLEAR     37  32  81 W7        29.90R WCI  32
LONE ROCK      NOT AVBL
MINERAL POINT  CLEAR     41  30  65 W12       29.94R
MADISON        CLEAR     37  31  78 W5        29.91R WCI  33
MIDDLETON      CLEAR     38  30  74 W7        29.92R WCI  32
WATERTOWN      CLOUDY    37  36  96 W5        29.89S WCI  33
MONROE         CLEAR     39  32  75 W14G20    29.93R WCI  31
JANESVILLE     PTCLDY    36  32  87 W7        29.92R WCI  30
$$

WIZ051-052-058>065-066-070>072-300600-
SOUTHEAST WISCONSIN

CITY           SKY/WX    TMP DP  RH WIND       PRES   REMARKS
MILWAUKEE      MOCLDY    41  31  67 W10       29.89R
WAUKESHA       CLOUDY    37  32  81 W8        29.90R WCI  31
MILWAUKEE/TIMM CLOUDY    37  32  81 W8        29.88S WCI  31
RACINE         MOCLDY    40  32  73 W8        29.91R WCI  34
BURLINGTON     MOCLDY    32  30  93 CALM      29.91R
KENOSHA        MOCLDY    35  32  88 W7        29.91R WCI  29
FOND DU LAC    PTCLDY    39  30  70 W9        29.87R WCI  33
SHEBOYGAN      CLEAR     39  29  67 W14       29.84R WCI  31
WEST BEND      PTCLDY    37  30  75 W9        29.86R WCI  31
JUNEAU         CLOUDY    36  32  85 W7        29.89S WCI  31
$$

LSZ147-162-300600-
LAKE SUPERIOR

STATION/POSITION TIME  TEMP    WIND        PRES    WAVE
                       AIR SEA DIR/SP/G            HT/PER
                 (UTC) (F)     (DEG/KT/KT) (MB)    (FT/S)
DEVILS ISLAND    0400   40     260/ 15/ 17 1009.4R
PORT WING        0400   40     240/  8/ 11 1010.5S
SAXON HARBOR     0400   40     230/  4/  9 1009.5R
$$

LMZ867-665-643>646-300600-
LAKE MICHIGAN

STATION/POSITION TIME  TEMP    WIND        PRES    WAVE
                       AIR SEA DIR/SP/G            HT/PER
                 (UTC) (F)     (DEG/KT/KT) (MB)    (FT/S)
NORTHPORT PIER   0300   38     290/ 10/ 18 1004.7R
SISTER BAY       0402   37     320/ 23/ 26   N/A
KEWAUNEE LAKESHO 0400   39     290/ 13/ 18 1007.2R
SHEBOYGAN LAKESH 0400   41     280/ 14/ 17 1010.7R
PORT WASHINGTON  0400   42     290/  6/ 11 1011.5
MILWAUKEE LAKESH 0400   42     280/  9/ 12   N/A
KENOSHA   LAKESH 0400   42     290/  8/ 12 1012.5R
$$

TC  - TEMPERATURE IN CELSIUS
VSB - VISIBILITY IN STATUTE MILES
WCI - WIND CHILL INDEX
HX  - HEAT INDEX



USA.gov is the U.S. government's official web portal to all federal, state and local government web resources and services.